Weather History for South Lake Tahoe, CA

Change the Weather History Date:

Wednesday, March 23, 2011

  Actual Average Record
Temperature  
Mean Temperature 31 °F 37 °F  
Max Temperature 37 °F 50 °F 62 °F (2004)
Min Temperature 25 °F 24 °F 10 °F (1962)
Degree Days  
Heating Degree Days 34 28  
Month to date heating degree days 722 693  
Since 1 July heating degree days 5560 5930  
Cooling Degree Days 0 0  
Month to date cooling degree days 0 0  
Year to date cooling degree days 0 0  
Moisture  
Dew Point 26 °F    
Average Humidity 78    
Maximum Humidity 85    
Minimum Humidity 70    
Precipitation  
Precipitation 0.34 in - 1.96 in (1983)
Month to date precipitation 5.77  
Year to date precipitation 8.13  
Snow  
Snow 0.00 in - - ()
Month to date snowfall 20.0  
Snow Depth 30.00 in    
Sea Level Pressure  
Sea Level Pressure 29.74 in    
Wind  
Wind Speed 5 mph (South)    
Max Wind Speed 17 mph    
Max Gust Speed 24 mph    
Visibility 3 miles    
Events Fog , Snow    
T = Trace of Precipitation, MM = Missing Value Source: NWS Daily Summary

Daily Weather History Graph

Daily Weather History Graph

Search for Another Location

Airport:

Trip Planner

Search our weather history database for the weather conditions in past years. The results will help you decide how hot, cold, wet, or windy it might be!

Date:

Astronomy

Mar. 23, 2011 Rise Set
Actual Time 6:59 AM PDT 7:14 PM PDT
Civil Twilight 6:32 AM PDT 7:41 PM PDT
Nautical Twilight 6:01 AM PDT 8:12 PM PDT
Astronomical Twilight 5:29 AM PDT 8:44 PM PDT
Moon No Moon Rise 9:16 AM PDT (3/23)
Length of Visible Light 13h 08m
Length of Day
12h 15m
Waning Gibbous, 78% of the Moon is Illuminated
Mar 23
Waning Gibbous
Mar 26
Last Quarter
Apr 3
New
Apr 11
First Quarter
Apr 17
Full

Hourly Weather History & Observations

Time (PDT) Temp. Windchill Dew Point Humidity Pressure Visibility Wind Dir Wind Speed Gust Speed Precip Events Conditions
12:53 AM 27.0 °F - 21.0 °F 78% 29.86 in 8.0 mi Calm Calm - 0.00 in Snow Light Snow
1:53 AM 27.0 °F - 21.9 °F 81% 29.82 in 10.0 mi Calm Calm - 0.00 in   Overcast
2:12 AM 28.4 °F - 23.0 °F 80% 29.84 in 2.5 mi Calm Calm - 0.00 in Snow Light Snow
2:19 AM 28.4 °F - 24.8 °F 86% 29.83 in 0.8 mi Calm Calm - 0.01 in Snow Light Snow
2:31 AM 28.4 °F - 24.8 °F 86% 29.82 in 1.0 mi Calm Calm - 0.01 in Snow Light Snow
2:39 AM 28.4 °F - 24.8 °F 86% 29.82 in 3.0 mi Calm Calm - 0.02 in Snow Light Snow
2:43 AM 28.4 °F 24.6 °F 24.8 °F 86% 29.82 in 5.0 mi West 3.5 mph - 0.02 in Snow Light Snow
2:53 AM 28.9 °F - 25.0 °F 85% 29.82 in 9.0 mi Calm Calm - 0.02 in   Overcast
3:10 AM 28.4 °F - 24.8 °F 86% 29.82 in 3.0 mi Calm Calm - 0.00 in Snow Light Snow
3:23 AM 28.4 °F - 24.8 °F 86% 29.81 in 6.0 mi Calm Calm - 0.00 in Snow Light Snow
3:32 AM 28.4 °F - 24.8 °F 86% 29.80 in 7.0 mi Calm Calm - 0.00 in Snow Light Snow
3:53 AM 28.9 °F - 25.0 °F 85% 29.80 in 5.0 mi Calm Calm - 0.00 in   Overcast
3:55 AM 28.4 °F 24.6 °F 24.8 °F 86% 29.80 in 1.8 mi SSE 3.5 mph - 0.00 in Snow Light Snow
4:03 AM 30.2 °F 24.3 °F 26.6 °F 86% 29.79 in 0.5 mi SSW 5.8 mph - 0.01 in Fog , Snow Snow
4:10 AM 30.2 °F 24.3 °F 26.6 °F 86% 29.79 in 0.5 mi SW 5.8 mph - 0.02 in Fog , Snow Snow
4:16 AM 30.2 °F 26.7 °F 26.6 °F 86% 29.78 in 1.0 mi SSW 3.5 mph - 0.02 in Snow Light Snow
4:22 AM 30.2 °F 26.7 °F 26.6 °F 86% 29.78 in 2.0 mi Variable 3.5 mph - 0.02 in Snow Light Snow
4:30 AM 30.2 °F 24.3 °F 26.6 °F 86% 29.78 in 3.0 mi South 5.8 mph - 0.02 in Snow Light Snow
4:38 AM 30.2 °F 25.4 °F 26.6 °F 86% 29.78 in 2.0 mi South 4.6 mph - 0.02 in Snow Light Snow
4:53 AM 30.2 °F 26.7 °F 26.6 °F 86% 29.77 in 2.5 mi South 3.5 mph - N/A Snow Light Snow
5:12 AM 32.0 °F 27.5 °F 26.6 °F 80% 29.77 in 1.5 mi Variable 4.6 mph - 0.01 in Snow Light Snow
5:24 AM 32.0 °F 28.7 °F 26.6 °F 80% 29.77 in 2.0 mi SW 3.5 mph - 0.01 in Snow Light Snow
5:32 AM 32.0 °F 28.7 °F 26.6 °F 80% 29.77 in 4.0 mi Variable 3.5 mph - 0.01 in Snow Light Snow
5:51 AM 32.0 °F - 26.6 °F 80% 29.76 in 6.0 mi Calm Calm - 0.01 in Snow Light Snow
5:53 AM 32.0 °F - 27.0 °F 82% 29.75 in 7.0 mi Calm Calm - 0.01 in Snow Light Snow
6:13 AM 30.2 °F - 26.6 °F 86% 29.75 in 2.5 mi Calm Calm - 0.00 in Snow Light Snow
6:21 AM 32.0 °F 28.7 °F 26.6 °F 80% 29.75 in 2.0 mi SSE 3.5 mph - 0.01 in Snow Light Snow
6:33 AM 30.2 °F - 26.6 °F 86% 29.73 in 4.0 mi Calm Calm - N/A Snow Light Snow
6:40 AM 30.2 °F - 26.6 °F 86% 29.73 in 5.0 mi Calm Calm - 0.01 in Snow Light Snow
6:53 AM 30.9 °F - 27.0 °F 85% 29.72 in 9.0 mi Calm Calm - 0.01 in Snow Light Snow
7:00 AM 30.2 °F - 28.4 °F 93% 29.74 in 2.5 mi Calm Calm - 0.00 in Snow Light Snow
7:09 AM 30.2 °F - 28.4 °F 93% 29.74 in 1.2 mi Calm Calm - 0.00 in Snow Light Snow
7:18 AM 32.0 °F 28.7 °F 28.4 °F 87% 29.74 in 1.8 mi SSE 3.5 mph - 0.00 in Snow Light Snow
7:22 AM 32.0 °F 28.7 °F 28.4 °F 87% 29.74 in 0.8 mi SSW 3.5 mph - 0.00 in Snow Light Snow
7:29 AM 32.0 °F 28.7 °F 28.4 °F 87% 29.74 in 0.5 mi SSE 3.5 mph - 0.01 in Fog , Snow Light Snow
7:33 AM 32.0 °F 28.7 °F 28.4 °F 87% 29.74 in 1.0 mi South 3.5 mph - 0.01 in Snow Light Snow
7:39 AM 32.0 °F 28.7 °F 28.4 °F 87% 29.75 in 0.8 mi South 3.5 mph - 0.01 in Snow Light Snow
7:53 AM 32.0 °F 26.4 °F 28.9 °F 88% 29.75 in 1.0 mi South 5.8 mph - 0.01 in Snow Light Snow
8:00 AM 32.0 °F 26.4 °F 28.4 °F 87% 29.75 in 2.0 mi SSE 5.8 mph - 0.00 in Snow Light Snow
8:06 AM 33.8 °F 27.7 °F 28.4 °F 81% 29.74 in 4.0 mi SSE 6.9 mph - 0.00 in Snow Light Snow
8:15 AM 33.8 °F 26.4 °F 26.6 °F 75% 29.74 in 1.8 mi South 9.2 mph - 0.00 in Snow Light Snow
8:22 AM 33.8 °F 27.0 °F 28.4 °F 81% 29.75 in 0.8 mi South 8.1 mph 16.1 mph 0.00 in Snow Light Snow
8:35 AM 33.8 °F 27.0 °F 28.4 °F 81% 29.74 in 1.0 mi South 8.1 mph - 0.01 in Snow Light Snow
8:46 AM 33.8 °F - 28.4 °F 81% 29.74 in 0.8 mi Calm Calm - 0.01 in Snow Light Snow
8:53 AM 33.1 °F - 28.9 °F 85% 29.74 in 0.8 mi Calm Calm - 0.01 in Snow Light Snow
9:34 AM 33.8 °F 28.6 °F 28.4 °F 81% 29.74 in 1.0 mi South 5.8 mph - 0.02 in Snow Light Snow
9:42 AM 33.8 °F 27.7 °F 28.4 °F 81% 29.74 in 0.5 mi South 6.9 mph - 0.02 in Fog , Snow Snow
9:53 AM 33.1 °F 26.1 °F 28.9 °F 85% 29.74 in 0.5 mi South 8.1 mph - 0.02 in Fog , Snow Snow
10:18 AM 33.8 °F 27.7 °F 28.4 °F 81% 29.74 in 1.5 mi South 6.9 mph - 0.01 in Snow Light Snow
10:32 AM 33.8 °F 29.6 °F 30.2 °F 87% 29.74 in 0.8 mi South 4.6 mph - 0.01 in Snow Light Snow
10:46 AM 33.8 °F 28.6 °F 28.4 °F 81% 29.75 in 1.5 mi South 5.8 mph - 0.01 in Snow Light Snow
10:53 AM 34.0 °F 26.6 °F 28.0 °F 79% 29.75 in 1.0 mi South 9.2 mph - 0.01 in Snow Light Snow
11:00 AM 33.8 °F 25.3 °F 28.4 °F 81% 29.75 in 0.5 mi SSW 11.5 mph - 0.00 in Fog , Snow Snow
11:19 AM 33.8 °F 29.6 °F 30.2 °F 87% 29.74 in 1.8 mi South 4.6 mph - 0.01 in Snow Light Snow
11:23 AM 33.8 °F - 30.2 °F 87% 29.74 in 3.0 mi Calm Calm - 0.01 in Snow Light Snow
11:28 AM 33.8 °F - 30.2 °F 87% 29.73 in 7.0 mi Calm Calm - 0.01 in Snow Light Snow
11:38 AM 35.6 °F 29.2 °F 28.4 °F 75% 29.73 in 10.0 mi South 8.1 mph - N/A   Mostly Cloudy
11:53 AM 36.0 °F 29.0 °F 26.1 °F 67% 29.73 in 10.0 mi SSW 9.2 mph - 0.01 in   Overcast
12:00 PM 35.6 °F 27.1 °F 26.6 °F 70% 29.73 in 10.0 mi SSW 12.7 mph 20.7 mph N/A   Overcast
12:40 PM 35.6 °F 28.0 °F 26.6 °F 70% 29.72 in 10.0 mi SSW 10.4 mph 17.3 mph N/A   Mostly Cloudy
12:53 PM 36.0 °F 31.1 °F 27.0 °F 70% 29.72 in 10.0 mi Variable 5.8 mph - N/A   Mostly Cloudy
1:02 PM 35.6 °F 27.5 °F 26.6 °F 70% 29.74 in 1.2 mi South 11.5 mph - 0.00 in Snow Light Snow
1:05 PM 33.8 °F 24.8 °F 28.4 °F 81% 29.74 in 0.5 mi South 12.7 mph - 0.00 in Snow Snow
1:19 PM 33.8 °F 27.0 °F 28.4 °F 81% 29.73 in 0.5 mi South 8.1 mph - 0.00 in Fog , Snow Light Snow
1:23 PM 33.8 °F 28.6 °F 28.4 °F 81% 29.72 in 1.0 mi South 5.8 mph - N/A Snow Light Snow
1:28 PM 33.8 °F 30.8 °F 28.4 °F 81% 29.72 in 3.0 mi South 3.5 mph - 0.00 in Snow Light Snow
1:34 PM 33.8 °F 29.6 °F 28.4 °F 81% 29.71 in 9.0 mi Variable 4.6 mph - 0.01 in   Mostly Cloudy
1:53 PM 35.1 °F 26.4 °F 26.1 °F 70% 29.71 in 5.0 mi SSW 12.7 mph 19.6 mph 0.01 in Snow Light Snow
1:55 PM 33.8 °F 25.3 °F 26.6 °F 75% 29.71 in 2.5 mi SSW 11.5 mph 19.6 mph 0.00 in Snow Light Snow
1:58 PM 33.8 °F 25.8 °F 26.6 °F 75% 29.71 in 0.8 mi SSW 10.4 mph 19.6 mph 0.00 in Snow Light Snow
2:05 PM 32.0 °F 26.4 °F 28.4 °F 87% 29.70 in 0.2 mi SSW 5.8 mph - 0.00 in Fog , Snow Snow
2:11 PM 32.0 °F 26.4 °F 28.4 °F 87% 29.71 in 0.2 mi South 5.8 mph - 0.01 in Fog , Snow Snow
2:19 PM 32.0 °F 24.8 °F 28.4 °F 87% 29.71 in 0.8 mi South 8.1 mph - 0.01 in Snow Light Snow
2:30 PM 32.0 °F 27.5 °F 28.4 °F 87% 29.70 in 0.5 mi South 4.6 mph - 0.02 in Fog , Snow Snow
2:53 PM 32.0 °F 27.5 °F 28.9 °F 88% 29.69 in 0.5 mi South 4.6 mph - 0.03 in Fog , Snow Snow
3:00 PM 32.0 °F 26.4 °F 28.4 °F 87% 29.70 in 0.8 mi South 5.8 mph - 0.00 in Snow Light Snow
3:34 PM 32.0 °F - 28.4 °F 87% 29.68 in 1.0 mi Calm Calm - 0.02 in Snow Light Snow
3:44 PM 32.0 °F - 28.4 °F 87% 29.68 in 0.8 mi Calm Calm - 0.02 in Snow Light Snow
3:53 PM 32.0 °F 27.5 °F 28.0 °F 85% 29.68 in 0.8 mi South 4.6 mph - 0.02 in Snow Light Snow
4:53 PM 32.0 °F 27.5 °F 28.0 °F 85% 29.65 in 1.0 mi South 4.6 mph - 0.02 in Snow Light Snow
5:12 PM 32.0 °F 24.2 °F 26.6 °F 80% 29.67 in 0.5 mi South 9.2 mph - 0.01 in Snow Snow
5:30 PM 30.2 °F - 28.4 °F 93% 29.68 in 0.2 mi Calm Calm - 0.03 in Fog , Snow Snow
5:53 PM 30.0 °F 26.5 °F 26.1 °F 85% 29.68 in 0.2 mi Variable 3.5 mph - 0.06 in Fog , Snow Snow
6:53 PM 28.0 °F 22.8 °F 23.0 °F 81% 29.70 in 0.5 mi South 4.6 mph - 0.06 in Snow Snow
7:00 PM 28.4 °F 22.2 °F 21.2 °F 74% 29.70 in 1.2 mi South 5.8 mph - 0.00 in Snow Light Snow
7:50 PM 26.6 °F - 23.0 °F 86% 29.70 in 2.0 mi Calm Calm - 0.01 in Snow Light Snow
7:53 PM 27.0 °F - 23.0 °F 85% 29.70 in 2.5 mi Calm Calm - 0.01 in Snow Light Snow
8:09 PM 26.6 °F 20.0 °F 23.0 °F 86% 29.70 in 1.8 mi South 5.8 mph - 0.00 in Snow Light Snow
8:23 PM 26.6 °F 19.1 °F 21.2 °F 80% 29.70 in 2.5 mi SSE 6.9 mph - 0.00 in Snow Light Snow
8:53 PM 27.0 °F 20.5 °F 21.9 °F 81% 29.70 in 1.8 mi SSW 5.8 mph - 0.00 in Snow Light Snow
9:02 PM 26.6 °F 21.2 °F 21.2 °F 80% 29.69 in 2.5 mi SSW 4.6 mph - 0.00 in Snow Light Snow
9:17 PM 24.8 °F - 21.2 °F 86% 29.70 in 3.0 mi Calm Calm - 0.00 in Snow Light Snow
9:20 PM 24.8 °F - 21.2 °F 86% 29.70 in 5.0 mi Calm Calm - 0.00 in Snow Light Snow
9:53 PM 27.0 °F 17.3 °F 19.9 °F 75% 29.70 in 8.0 mi South 10.4 mph - 0.00 in   Overcast
10:28 PM 28.4 °F 23.3 °F 19.4 °F 69% 29.71 in 10.0 mi South 4.6 mph - 0.00 in   Overcast
10:46 PM 28.4 °F 22.2 °F 21.2 °F 74% 29.71 in 4.0 mi South 5.8 mph - 0.00 in Snow Light Snow
10:53 PM 28.0 °F 20.0 °F 21.0 °F 75% 29.71 in 4.0 mi SSE 8.1 mph - 0.00 in Snow Light Snow
10:59 PM 28.4 °F 24.6 °F 19.4 °F 69% 29.71 in 5.0 mi Variable 3.5 mph - 0.00 in Snow Light Snow
11:10 PM 26.6 °F 18.2 °F 21.2 °F 80% 29.72 in 2.5 mi South 8.1 mph 19.6 mph 0.00 in Snow Light Snow
11:16 PM 26.6 °F 19.1 °F 21.2 °F 80% 29.71 in 3.0 mi South 6.9 mph - 0.00 in Snow Light Snow
11:26 PM 26.6 °F 17.5 °F 19.4 °F 74% 29.70 in 9.0 mi South 9.2 mph 17.3 mph 0.00 in   Overcast
11:53 PM 27.0 °F 15.2 °F 19.0 °F 72% 29.69 in 9.0 mi South 15.0 mph 23.0 mph 0.00 in   Mostly Cloudy